Location: ?ern� Novina
(50.6762°N, 14.8696°E)
Time: 12:53:46
(UTC+00:00)

Resurs 1-3 - Pass Details

Date: 03 March 2021
Orbit: 629 x 633 km, 97.9° (Epoch: 11 April)

Event Time Altitude Azimuth Distance (km) Brightness Sun altitude
Exits shadow 19:38:48 46° 247° (WSW) 850 4.4 -27.6°
Maximum altitude 19:39:06 47° 261° (W) 840 4.4 -27.6°
Drops below altitude 10° 19:43:23 10° 336° (NNW) 2,029 6.8 -28.2°
Sets 19:45:40 0° 342° (NNW) 2,942 7.7 -28.6°
